This is the latest recevied weather packets stored in our database for station/object OM6ACB-6. If no packets are shown the sender has not sent any weather packets the latest 10 day(s).
| Time | Temp. | Humidity | Pressure | Rain* | Wind** | Luminosity | Snow |
|---|---|---|---|---|---|---|---|
| 1777920862 | -31.67° C | - | - | - | - | - | - |
| 1777920262 | -31.67° C | - | - | - | - | - | - |
| 1777919662 | -31.67° C | - | - | - | - | - | - |
| 1777919061 | 15° C | 25% | 1017.6 hPa | 0 mm | - | - | - |
| 1777918461 | 15° C | 25% | 1017.6 hPa | 0 mm | - | - | - |
| 1777917861 | 15.56° C | 25% | 1017.6 hPa | 0 mm | - | - | - |
| 1777917261 | 16.67° C | 24% | 1017.7 hPa | 0 mm | - | - | - |
| 1777916660 | 17.22° C | 24% | 1017.9 hPa | 0 mm | - | - | - |
| 1777916060 | 18.33° C | 23% | 1017.9 hPa | 0 mm | - | - | - |
| 1777915460 | 18.89° C | 23% | 1018.1 hPa | 0 mm | - | - | - |
| 1777914859 | 20° C | 23% | 1018.2 hPa | 0 mm | - | - | - |
| 1777914259 | 20° C | 23% | 1018.3 hPa | 0 mm | - | - | - |
| 1777913659 | 21.67° C | 22% | 1018.5 hPa | 0 mm | - | - | - |
| 1777913059 | 22.78° C | 21% | 1018.8 hPa | 0 mm | - | - | - |
| 1777912458 | 23.33° C | 21% | 1018.9 hPa | 0 mm | - | - | - |
| 1777911858 | 22.78° C | 21% | 1018.7 hPa | 0 mm | - | - | - |
| 1777911258 | 23.33° C | 21% | 1018.7 hPa | 0 mm | - | - | - |
| 1777910657 | 23.33° C | 21% | 1018.8 hPa | 0 mm | - | - | - |
| 1777910057 | 25.56° C | 20% | 1019.2 hPa | 0 mm | - | - | - |
| 1777909457 | 24.44° C | 20% | 1019.1 hPa | 0 mm | - | - | - |
| 1777908857 | 25° C | 20% | 1019.3 hPa | 0 mm | - | - | - |
| 1777908256 | 25° C | 20% | 1019.3 hPa | 0 mm | - | - | - |
| 1777907656 | 25.56° C | 20% | 1019.5 hPa | 0 mm | - | - | - |
| 1777907056 | 25° C | 20% | 1019.4 hPa | 0 mm | - | - | - |
| 1777906455 | 25.56° C | 20% | 1019.4 hPa | 0 mm | - | - | - |
* Rain since midnight (hover to see other rain measurements)
** Current wind speed in m/s (hover to see current wind gust speed)